Regional Weather Roundup
Issued by NWS

Home | Current Version | Previous Version | Graphics & Text | Print | Product List | Glossary On
Versions: 1 2 3 4 5 6 7 8 9 10 11 12 13 14 15 16 17 18 19 20 21 22 23 24 25 26 27 28 29 30 31 32 33 34 35 36 37 38 39 40 41 42 43 44 45 46 47 48 49 50
000
ASUS43 KMKX 240111
RWRWI

WISCONSIN REGIONAL WEATHER ROUNDUP
NATIONAL WEATHER SERVICE MILWAUKEE/SULLIVAN WI
800 PM CDT THU OCT 23 2014

NOTE: "FAIR" INDICATES FEW OR NO CLOUDS BELOW 12,000 FEET WITH NO
SIGNIFICANT WEATHER AND/OR OBSTRUCTIONS TO VISIBILITY.

WIZ001-002-006>008-014>016-023>028-240200-
NORTHWEST WISCONSIN

CITY           SKY/WX    TMP DP  RH WIND       PRES   REMARKS
SUPERIOR ARPT  PTCLDY    47  46  95 CALM      29.95R
ASHLAND        MOCLDY    49  47  93 S6        29.98R
HAYWARD        MOCLDY    50  47  89 S9        29.99S
SIREN          CLEAR     50  49  95 S7        29.97S
CUMBERLAND     FOG       45  45 100 S3        29.99F VSB 1/4
RICE LAKE      CLEAR     47  46  95 SE6       30.01S FOG
CHETEK         CLOUDY    50  50  97 SE3       30.01S
LADYSMITH      CLOUDY    50  49  97 SE5       30.03S FOG
EAU CLAIRE     CLOUDY    52  50  93 S5        30.02R
MENOMONIE      CLOUDY    52  50  93 SE5       30.02S
NEW RICHMOND   CLEAR     48  48  99 SE3       30.00S
OSCEOLA        CLEAR     51  51 100 SE7       30.01S
$$

WIZ003>005-009-010-017-018-240200-
NORTH CENTRAL WISCONSIN

CITY           SKY/WX    TMP DP  RH WIND       PRES   REMARKS
MANITOWISH WTR CLOUDY    45  45 100 SW5       30.00S FOG
ARBOR VITAE    FOG       46  44  95 CALM      30.01R VSB 3/4
WOODRUFF       FOG       46  44  95 CALM      30.01R VSB 3/4
RHINELANDER    CLOUDY    44  44 100 SW6       30.03R FOG
EAGLE RIVER    FOG       44  44 100 SW7       30.01S VSB 3/4
LAND O LAKES   CLOUDY    45  45  99 SW3       30.01S FOG
PHILLIPS       CLOUDY    46  46  99 SW6       30.01S FOG
TOMAHAWK       FOG       45  44  97 CALM      30.03F VSB 3/4
MEDFORD        FOG       46  46 100 CALM      30.03S VSB 1/2
MERRILL        CLOUDY    46  46 100 SW3       30.04R FOG
$$

WIZ029-030-035-036-043>047-240200-
CENTRAL WISCONSIN

CITY           SKY/WX    TMP DP  RH WIND       PRES   REMARKS
WAUSAU         FOG       46  46 100 W3        30.03R VSB 1/2
MOSINEE        FOG       45  45 100 SW3       30.04R VSB 1/4
MARSHFIELD     FOG       47  47 100 SW5       30.04R VSB 1/4
STEVENS POINT  CLOUDY    44  44 100 SW3       30.05R FOG
WAUPACA        CLOUDY    49  48  95 CALM      30.05R FOG
WAUTOMA        CLOUDY    48  47  97 CALM      30.06R FOG
WISC RAPIDS    CLOUDY    47  46  97 SW3       30.06R FOG
CAMP DOUGLAS   CLOUDY    46  46 100 CALM      30.04S FOG
$$

WIZ011>013-019>022-031-037>040-048>050-240200-
NORTHEAST WISCONSIN

CITY           SKY/WX    TMP DP  RH WIND       PRES   REMARKS
ANTIGO         FOG       43  43 100 S3        30.03S VSB 1/4
SHAWANO        CLOUDY    49  47  93 CALM      30.05R FOG
OCONTO         CLOUDY    48  48 100 CALM      30.04S
STURGEON BAY   CLOUDY    48  45  87 S9        30.05F
GREEN BAY      CLOUDY    49  48  97 S5        30.04F FOG
MANITOWOC      CLOUDY    50  49  96 SW6       30.06R FOG
APPLETON       DRIZZLE   48  46  93 S3        30.04S FOG
CLINTONVILLE   CLOUDY    46  46 100 CALM      30.04R FOG
OSHKOSH        CLOUDY    49  48  97 S3        30.03F FOG
$$

WIZ032>034-041-042-053>061-240200-
SOUTHWEST WISCONSIN

CITY           SKY/WX    TMP DP  RH WIND       PRES   REMARKS
LA CROSSE      NOT AVBL
SPARTA         CLOUDY    47  46  99 CALM      30.05S FOG
VIROQUA        CLOUDY    47  47 100 CALM      30.04R VSB 1/4
BOSCOBEL       CLOUDY    50  48  93 W3        30.06R FOG
PRAIRIE DU CHI CLOUDY    50  49  94 CALM      30.05R FOG
PLATTEVILLE    CLOUDY    50  49  96 CALM      30.06R
$$

WIZ056-057-062-063-064-067-068-240200-
SOUTH CENTRAL WISCONSIN

CITY           SKY/WX    TMP DP  RH WIND       PRES   REMARKS
REEDSBURG      CLOUDY    47  47  99 W3        30.05R FOG
BARABOO/DELLS  CLOUDY    47  46  94 W3        30.04S FOG
LONE ROCK      CLOUDY    53  48  83 CALM      30.05S HAZE
MINERAL POINT  CLOUDY    52  48  87 CALM      30.05S FOG
MADISON        CLOUDY    52  49  89 SW3       30.05R
MIDDLETON      CLOUDY    52  51  96 SW3       30.05S
WATERTOWN      CLOUDY    50  50  99 S5        30.05S
MONROE         CLOUDY    50  50 100 SW5       30.05R
JANESVILLE     CLOUDY    52  50  93 S7        30.05S
$$

WIZ051-052-058>065-066-070>072-240200-
SOUTHEAST WISCONSIN

CITY           SKY/WX    TMP DP  RH WIND       PRES   REMARKS
MILWAUKEE      CLOUDY    53  49  86 S6        30.07R FOG
WAUKESHA       CLOUDY    54  45  71 CALM      30.07R
MILWAUKEE/TIMM NOT AVBL
RACINE         LGT RAIN  52  48  86 S6        30.09R FOG
BURLINGTON     CLOUDY    48  47  97 S3        30.07R
KENOSHA        LGT RAIN  51  48  89 CALM      30.08R FOG
FOND DU LAC    CLOUDY    49  47  93 SW3       30.04F
SHEBOYGAN      CLOUDY    50  48  93 CALM      30.06R FOG
WEST BEND      CLOUDY    48  45  87 CALM      30.05S
JUNEAU         CLOUDY    50  48  90 S5        30.06R
$$

LSZ147-162-240200-
LAKE SUPERIOR

STATION/POSITION TIME  TEMP    WIND        PRES    WAVE
                       AIR SEA DIR/SP/G            HT/PER
                 (UTC) (F)     (DEG/KT/KT) (MB)    (FT/S)
W MID LAKE BUOY  0050   47 46  220/  2/  4 1014.8F   1
DEVILS ISLAND    0100   52     200/  5/  6 1014.8R
PORT WING        0000   51     160/  4/  7 1014.6
SAXON HARBOR     0040   52     210/  5/ 11 1014.9S
$$

LMZ867-665-643>646-240200-
LAKE MICHIGAN

STATION/POSITION TIME  TEMP    WIND        PRES    WAVE
                       AIR SEA DIR/SP/G            HT/PER
                 (UTC) (F)     (DEG/KT/KT) (MB)    (FT/S)
CHAMBERS ISLAND  0000   49     180/  4/  7 1017.6S
N MID LAKE BUOY  0050   51 51  210/ 17/ 23 1017.5F   3/ 5
NORTHPORT PIER   0000   50     160/  5/ 10 1017.3F
SISTER BAY       0043          170/  9/ 10   N/A
ALGOMA LAKESHORE 2311          230/ 15/ 17   N/A
KEWAUNEE LAKESHO 0000   50     200/  7/ 10 1016.9R
SHEBOYGAN LAKESH 0100   51 51  180/  6/  6 1018.6R
PORT WASHINGTON  0000   52     180/  4/  6 1018.3S
ATWATER BUOY     0100   53     160/ 10/ 12 1019.0R
MILWAUKEE LAKESH 0000   52     190/  4/  5   N/A
S MID LAKE BUOY  0050   55 54  170/ 12/ 14 1018.7R   2/ 4
KENOSHA   LAKESH 0100   52     200/  3/  4 1018.6R
$$

TC  - TEMPERATURE IN CELSIUS
VSB - VISIBILITY IN STATUTE MILES
WCI - WIND CHILL INDEX
HX  - HEAT INDEX




USA.gov is the U.S. government's official web portal to all federal, state and local government web resources and services.